Location: Amersdorf
(48.4667°N, 13.9000°E)
Time: 07:58:54
(UTC+00:00)

Daily predictions for brighter satellites

Satellite Brightness Start Highest point End
(mag) Time Altitude Azimuth Time Altitude Azimuth Time Altitude Azimuth
NOSS 3-4 (A) 4.0 16:05:48 10° WSW 16:11:37 57° NW 16:17:57 10° NE
NOSS 3-4 (C) 3.9 16:05:57 10° WSW 16:11:47 57° NW 16:18:06 10° NE
Cosmos 1674 3.3 16:13:08 10° SSW 16:16:56 62° W 16:20:46 10° N
Cosmos 2279 Rocket 4.3 16:11:49 10° N 16:17:51 46° ENE 16:23:50 10° SSE
Cosmos 1315 Rocket 2.9 16:15:42 10° N 16:19:36 51° ENE 16:23:30 10° SSE
Cosmos 1503 Rocket 4.1 16:16:19 10° SSW 16:21:39 74° ESE 16:27:04 10° NNE
CZ-4 R/B 2.9 16:19:48 10° ESE 16:22:26 17° ENE 16:25:01 10° NNE
Cosmos 2227 4.3 16:17:12 10° SSW 16:22:46 67° ESE 16:28:25 10° NNE
Cosmos 1536 Rocket 3.8 16:19:00 10° SSW 16:23:23 76° WNW 16:27:50 10° N
COSMO-SKYMED 1 3.8 16:21:27 10° NE 16:24:57 23° E 16:28:25 10° SSE
Cosmos 2227 Rocket 3.9 16:21:09 10° WSW 16:25:56 27° NW 16:30:46 10° NNE
TIMED 4.5 16:22:21 10° NNW 16:26:46 82° ENE 16:31:08 10° SSE
ATLAS 2AS CENTAUR R/B 3.4 16:21:15 10° SW 16:29:09 65° NW 16:36:54 10° NE
Cosmos 1634 Rocket 4.0 16:25:20 10° N 16:31:37 87° E 16:37:54 10° S
Cosmos 1844 Rocket 4.0 16:29:37 10° SE 16:33:37 20° E 16:37:38 10° NE
CZ-2C R/B 3.7 16:30:09 10° SE 16:35:01 38° ENE 16:40:10 10° N
H-2A R/B 3.0 16:32:59 10° S 16:36:57 63° WSW 16:41:07 10° NNW
Okean-O 3.7 16:33:33 10° ESE 16:37:00 23° ENE 16:40:29 10° N
H-2A R/B 3.0 16:34:06 10° ESE 16:38:04 24° ENE 16:42:08 10° N
CZ-4B R/B 2.3 16:36:16 10° NE 16:39:17 29° E 16:42:15 10° SSE
Okean O Rocket 1.7 16:35:20 10° SSE 16:39:47 88° W 16:44:15 10° NNW
SeaSat 1 4.2 16:36:50 10° N 16:41:00 28° NW 16:45:09 10° WSW
Cosmos 773 Rocket 3.9 16:36:25 10° NNW 16:41:37 80° ENE 16:46:44 10° SSE
SMAP 3.6 16:37:12 10° S 16:41:49 66° WSW 16:46:28 10° NNW
Cosmos 1626 2.6 16:39:08 10° SSW 16:42:48 64° WNW 16:46:29 10° N
CZ-4B R/B 3.5 16:38:19 10° S 16:43:50 75° WSW 16:49:30 10° NNW
SL-24 R/B 4.5 16:40:05 10° S 16:44:24 72° W 16:49:03 10° NNW
Cosmos 1689 Rocket 4.4 16:48:09 10° ESE 16:48:09 10° ESE 16:48:10 10° ESE
Aureole 2 Rocket 3.8 16:45:26 10° SE 16:47:26 17° E 16:48:02 16° E
Cosmos 2297 Rocket 4.4 16:47:02 10° W 16:50:47 18° NW 16:54:34 10° N
Meteor 2-10 Rocket 3.7 16:45:52 10° N 16:51:18 52° ENE 16:56:29 10° SSE
OPS 8737 4.3 16:53:19 10° NW 16:56:27 79° NE 17:00:29 10° SE
Cosmos 1606 Rocket 3.6 16:52:07 10° N 16:56:31 84° W 17:00:56 10° S
CZ-2D R/B 3.3 16:52:47 10° SSE 16:56:32 52° ENE 17:00:17 10° N
H-2A R/B 2.4 16:53:20 10° N 16:57:50 71° WNW 17:02:10 10° SSW
USA 234 3.8 16:52:59 14° ENE 16:58:14 43° N 17:04:21 10° WNW
YAOGAN 1 3.2 16:55:21 10° SE 16:59:13 33° ENE 17:03:06 10° N
Cosmos 1892 Rocket 3.6 16:55:33 10° S 16:59:47 55° E 17:04:02 10° NNE
ATLAS 5 CENTAUR R/B 1.9 16:57:59 10° SW 17:02:00 61° NW 17:06:05 13° NE
Meteor 2-1 Rocket 4.4 16:59:02 10° N 17:04:24 44° ENE 17:09:38 10° SE
Helios 1A Rocket 3.7 17:01:28 10° SE 17:05:05 30° ENE 17:08:43 10° N
SL-14 R/B 4.2 17:01:34 10° SSW 17:05:19 49° WNW 17:09:09 10° N
MOS 1 Rocket 3.3 17:03:06 10° NNE 17:07:16 44° E 17:11:22 10° S
RESURS DK-1 3.8 17:03:35 10° WSW 17:07:23 34° NW 17:11:12 10° NNE
Cosmos 2228 3.7 17:04:17 10° NNW 17:08:28 56° W 17:12:39 10° S
ATLAS 3B R/B 4.4 17:02:23 10° NW 17:08:39 37° WSW 17:15:08 10° S
SKYMED 2 3.5 17:08:53 10° NNE 17:13:14 68° ESE 17:17:32 10° S
Meteor 2-5 Rocket 4.3 17:08:50 10° SSW 17:14:19 58° WNW 17:19:47 10° N
Cosmos 1538 Rocket 3.9 17:10:06 10° NNW 17:15:19 88° ENE 17:20:29 10° SSE
Aureole 3 3.3 17:12:01 10° N 17:15:27 37° ENE 17:18:24 10° SE
CZ-4C R/B 3.5 17:11:03 10° W 17:15:55 34° NNW 17:21:18 12° NE
SJ 16-02 1.9 17:13:09 10° SSE 17:17:10 36° ESE 17:18:57 25° ENE
CZ-3B R/B 1.8 17:14:57 10° NW 17:17:17 53° NNE 17:20:09 21° E
Nadezhda 4 Rocket 4.0 17:12:24 10° SSE 17:18:28 55° E 17:24:30 10° NNE
Cosmos 1777 Rocket 4.0 17:15:14 10° SSW 17:20:30 88° ESE 17:25:50 10° NNE
Cosmos 2263 Rocket 3.1 17:17:14 10° SW 17:22:42 47° NW 17:28:11 10° NNE
Cosmos 1455 2.2 17:22:16 10° N 17:26:02 56° ENE 17:29:48 10° SSE
Cosmos 2058 Rocket 3.2 17:23:27 10° NNW 17:27:58 81° W 17:32:29 10° S
COSMOS 2406 4.2 17:27:11 10° NNW 17:32:03 27° NE 17:32:42 26° ENE
Cosmos 1703 4.5 17:29:29 10° SSE 17:31:37 25° SE 17:31:37 25° SE
X-37B 2.4 17:30:43 10° SSW 17:33:11 21° SSE 17:33:14 21° SSE
Meteor 2-13 Rocket 4.3 17:30:51 10° S 17:36:55 72° E 17:43:03 10° NNE
ARGOS 3.2 17:32:19 10° SE 17:37:31 54° ENE 17:42:45 10° N
Cosmos 44 4.5 17:37:11 10° SSE 17:40:18 25° SE 17:40:18 25° SE
Okean 1-7 Rocket 3.6 17:36:47 10° S 17:41:19 85° W 17:45:55 10° N
Lacrosse 5 1.8 17:37:03 10° NW 17:42:08 84° SW 17:45:00 26° SE
CREW DRAGON DEMO-1 DEB 2.9 17:39:18 10° WNW 17:41:52 64° NW 17:41:52 64° NW
NOSS 3-1 (C) 4.1 17:35:19 10° NW 17:42:24 56° NE 17:47:11 26° ESE
ERS-2 2.0 17:42:02 28° NNE 17:43:52 88° WNW 17:47:30 10° SSW
ISS -2.9 17:42:10 10° SW 17:45:00 38° SSE 17:45:00 38° SSE
CZ-2C R/B 3.3 17:45:50 35° E 17:45:50 35° E 17:50:41 10° SSE
PSLV R/B 3.8 17:43:31 21° NNE 17:46:15 79° ESE 17:50:28 10° S
CSL-04 Debris 4.1 17:42:16 10° SSE 17:47:35 66° ENE 17:52:57 10° N
COSMOS 2455 2.9 17:44:01 10° SW 17:50:03 79° NW 17:54:02 23° NNE
Cosmos 1553 Rocket 4.5 17:45:17 10° N 17:51:11 37° ENE 17:51:29 36° ENE
Cosmos 1626 Rocket 3.4 17:48:11 10° S 17:52:32 69° E 17:54:01 40° NNE
Cosmos 1844 3.6 17:49:16 10° SSW 17:54:51 66° ESE 17:57:11 36° NE
Cosmos 1833 Rocket 3.5 17:50:15 10° NNW 17:54:41 31° NE 17:54:41 31° NE
Cosmos 2026 Rocket 4.0 17:49:42 10° SSE 17:55:33 50° E 18:01:31 10° NNE
USA 281 4.4 17:56:41 23° NE 17:56:41 23° NE 18:01:13 10° N
Cosmos 990 Rocket 4.3 17:51:39 10° S 17:56:17 44° ESE 17:56:17 44° ESE
Cosmos 2082 Rocket 3.7 17:52:38 10° N 17:55:56 21° NNE 17:55:56 21° NNE
CZ-4 R/B 2.0 17:53:01 10° S 17:57:04 57° W 18:01:04 10° NNW
USA 229 DEB 4.0 17:52:19 10° NW 17:59:21 53° NE 18:01:49 39° E
USA 229 4.0 17:52:25 10° NW 17:59:26 52° NE 18:01:52 39° E
COSMO-SKYMED 1 3.8 17:57:10 10° N 18:01:16 41° WNW 18:05:20 10° SW
SL-08 RB Rocket 3.9 18:05:15 51° NNE 18:05:15 51° NNE 18:08:52 10° N
DMSP B5D1-3 4.3 18:01:31 26° NNE 18:04:29 77° ESE 18:09:35 10° S
USA 267 3.8 18:04:12 35° ESE 18:04:47 35° SE 18:10:41 10° SSW
CZ-4B R/B 4.0 18:08:46 10° NNW 18:11:20 20° WNW 18:13:50 10° WSW
Okean-O 3.7 18:08:58 10° S 18:13:13 46° W 18:17:31 10° NNW
NOSS 3-1 (A) 4.1 18:07:50 10° NW 18:14:56 56° NE 18:16:58 46° E
Cosmos 1844 Rocket 2.8 18:11:15 10° SW 18:16:55 73° WNW 18:19:24 35° NNE
Cosmos 923 Rocket 4.4 18:11:40 10° NNW 18:16:58 64° WSW 18:22:12 10° S
H-2A R/B 2.7 18:12:18 10° S 18:17:10 53° W 18:22:11 10° NNW
Meteor 1-21 Rocket 4.4 18:13:43 10° SSW 18:19:13 70° WNW 18:24:47 10° N
Aureole 2 Rocket 4.3 18:17:30 10° WSW 18:19:28 25° W 18:19:28 25° W
Cosmos 2195 Rocket 4.4 18:14:49 10° S 18:21:10 88° E 18:27:33 10° N
ATLAS 2AS CENTAUR R/B 4.3 18:14:48 10° WNW 18:21:36 30° NNW 18:25:30 20° NNE
Meteor 2-8 Rocket 4.4 18:16:25 10° N 18:22:33 86° W 18:28:39 10° S
Meteor 2-15 4.3 18:17:05 10° N 18:23:16 71° E 18:24:42 52° SE
Cosmos 1680 Rocket 3.6 18:19:09 10° NNW 18:24:24 72° WSW 18:26:36 35° S
Cosmos 1898 Rocket 4.0 18:19:50 10° S 18:23:42 47° SSE 18:23:42 47° SSE
Cosmos 1627 Rocket 4.4 18:24:51 10° S 18:31:01 88° W 18:37:20 10° N
Cosmos 2098 Rocket 4.2 18:25:16 10° S 18:32:20 78° E 18:39:48 10° NNE
Cosmos 1602 Rocket 4.3 18:28:20 10° SSW 18:31:34 46° SW 18:31:34 46° SW
Cosmos 1818 3.8 18:28:43 10° SW 18:34:07 64° NW 18:34:53 57° N
YAOGAN 1 4.5 18:31:34 10° SSW 18:35:19 29° W 18:39:07 10° NW
Cosmos 1428 Rocket 4.4 18:29:44 10° S 18:36:02 87° WNW 18:42:24 10° N
CSL-04 Rocket 4.3 18:33:43 10° S 18:38:59 53° W 18:44:21 10° NNW
USA 234 3.2 18:40:20 65° NE 18:40:43 67° NNE 18:47:13 10° NW
Iridium 4 Rocket 4.3 18:40:39 10° N 18:46:14 54° W 18:51:23 10° SSW
Cosmos 1092 Rocket 4.5 18:40:11 10° SSW 18:46:16 57° WNW 18:52:21 10° N
ATLAS 5 CENTAUR R/B 3.8 18:44:29 10° WNW 18:47:37 19° NNW 18:47:37 19° NNW
Cosmos 2344 4.2 18:45:25 10° NW 18:54:40 90° NE 18:59:35 43° SE
SJ 16-02 3.2 18:52:00 10° WSW 18:55:49 28° WNW 18:55:59 28° NW
CZ-4C R/B 4.2 19:01:51 10° NW 19:06:26 22° N 19:06:30 22° N
COSMOS 2406 4.3 19:11:08 10° NNW 19:14:49 40° NW 19:14:49 40° NW
Lacrosse 5 4.1 19:20:59 10° W 19:24:15 19° WSW 19:24:15 19° WSW
CZ-2C R/B 4.1 19:27:19 35° W 19:27:19 35° W 19:31:08 10° SW
Cosmos 2082 Rocket 4.3 19:36:09 10° NNW 19:37:48 20° NNW 19:37:48 20° NNW
